[[{"header":{"parameterUnit":"m.s-1","parameterCategory":1,"la1":30.2991,"la2":30.254,"lo1":-89.0895,"lo2":-89.0444,"dy":0.0017,"dx":0.0017,"nx":28,"ny":28,"refTime":"2023-10-24T09:00:00:Z","depth":0,"parameterNumber":2,"parameterNumberName":"U-component_of_WINDS"},"data":[0,0,0,0,0,0,0,0,0,0,0,0,0,0,0,0,0,0,0,0,0,0,0,0,0,0,0,0,0,0,0,0,0,0,0,0,0,0,0,0,0,0,0,0,0,0,0,0,0,0,0,0,0,0,0,0,0,0,-6.4466,-6.4467,0,-6.4565,-6.4566,-6.4567,-6.4475,-6.4471,-6.4468,-6.4464,-6.4568,-6.4574,-6.458,0,0,0,0,0,0,0,0,0,0,0,0,0,-6.4203,-6.4208,-6.4466,-6.4467,-6.4469,-6.4565,-6.4566,-6.4567,-6.4476,-6.4471,-6.4467,-6.4462,-6.4566,-6.4573,-6.458,0,0,0,0,0,0,0,0,0,0,0,0,0,-6.4311,-6.421,-6.4466,-6.4434,-6.4432,-6.4564,-6.4566,-6.4568,-6.4477,-6.4471,-6.4465,-6.446,-6.4563,-6.4572,-6.4582,-6.475,0,0,-6.461,-6.4614,0,0,0,0,0,0,0,0,-6.4305,-6.4321,-6.4438,-6.4437,-6.4435,-6.4502,-6.4511,-6.4629,-6.4478,-6.446,-6.4464,-6.4458,-6.4551,-6.4561,-6.4591,-6.4755,-6.476,-6.4611,-6.4616,-6.462,-6.4623,0,0,0,0,0,0,0,-6.4298,-6.4316,-6.4505,-6.444,-6.4438,-6.4417,-6.4426,-6.4533,-6.4535,-6.4461,-6.4455,-6.4467,-6.4549,-6.4583,-6.4593,-6.4761,-6.4611,-6.4619,-6.4625,-6.4628,-6.5071,-6.5077,0,0,0,0,0,0,-6.4293,-6.431,-6.4502,-6.4508,-6.4355,-6.4426,-6.4436,-6.4486,-6.4534,-6.4536,-6.4472,-6.4463,-6.4569,-6.4582,-6.4596,-6.4797,-6.462,-6.4629,-6.4635,-6.5065,-6.5072,-6.5079,0,0,0,0,0,0,-6.4288,-6.4311,-6.4498,-6.4408,-6.443,-6.4436,-6.4493,-6.4491,-6.4524,-6.4542,-6.4542,-6.4506,-6.4565,-6.4583,-6.4713,-6.48,-6.4633,-6.4642,-6.5058,-6.5067,-6.5076,-6.5201,0,0,0,0,0,0,-6.428,-6.4309,-6.4372,-6.441,-6.4435,-6.4612,-6.4498,-6.4497,-6.4541,-6.4529,-6.4574,-6.4576,-6.4562,-6.47,-6.4722,-6.4809,-6.4649,-6.505,-6.5062,-6.5073,-6.5189,-6.5213,-6.5234,0,0,0,0,0,-6.4271,-6.4404,-6.4376,-6.4399,-6.4513,-6.4617,-6.4631,-6.4612,-6.4548,-6.4612,-6.4624,-6.4575,-6.4788,-6.4714,-6.4738,-6.483,-6.5044,-6.5058,-6.5072,-6.5179,-6.5208,-6.5233,0,0,0,0,0,0,-6.4376,-6.4408,-6.4377,-6.4525,-6.4569,-6.4601,-6.468,-6.4644,-6.4708,-6.4694,-6.4669,-6.468,-6.4818,-6.4837,-6.4754,-6.4997,-6.4906,-6.4925,-6.4978,-6.5006,-6.5029,-6.502,-6.4657,0,0,0,0,0,-6.4416,-6.4497,-6.4521,-6.4649,-6.4673,-6.4674,-6.4718,-6.47,-6.4745,-6.4763,-6.4784,-6.483,-6.4907,-6.4958,-6.5031,-6.5193,-6.5201,-6.5268,-6.5291,-6.5309,-6.5325,-6.5414,-6.5443,-6.5125,-6.5125,-6.5124,0,0,-6.45,-6.4528,-6.4579,-6.4671,-6.4702,-6.4787,-6.4689,-6.4783,-6.4846,-6.4777,-6.49,-6.4919,-6.4969,-6.5116,-6.5181,-6.5136,-6.5416,-6.5327,-6.5341,-6.5347,-6.5431,-6.5461,-6.5488,-6.5134,-6.5132,-6.5131,0,0,-6.4695,-6.4725,-6.4835,-6.487,-6.4919,-6.492,-6.4947,-6.4985,-6.4994,-6.5118,-6.5068,-6.5145,-6.5278,-6.5316,-6.5353,-6.5569,-6.5526,-6.5593,-6.5709,-6.5796,-6.5821,-6.5843,-6.5919,-6.5947,-6.561,-6.561,-6.5611,0,-6.4793,-6.4917,-6.4896,-6.4994,-6.5036,-6.4979,-6.5092,-6.5127,-6.5198,-6.5229,-6.5178,-6.5346,-6.5376,-6.5531,-6.5584,-6.5616,-6.5647,-6.5586,-6.5819,-6.5841,-6.5861,-6.5934,-6.5963,-6.5618,-6.5617,-6.5616,-6.5616,0,-6.5035,-6.5123,-6.5207,-6.5277,-6.5329,-6.5434,-6.543,-6.5486,-6.5466,-6.5472,-6.5601,-6.5635,-6.5714,-6.575,-6.5731,-6.5904,-6.5874,-6.5822,-6.5729,-6.59,-6.5967,-6.5995,-6.5629,-6.5626,-6.5624,-6.5622,0,0,-6.5294,-6.5354,-6.5385,-6.5417,-6.547,-6.5538,-6.5642,-6.5719,-6.5767,-6.5821,-6.5907,-6.6024,-6.5976,-6.6018,-6.6004,-6.608,-6.6248,-6.6018,-6.6019,-6.6058,-6.6442,-6.6479,-6.6512,-6.6222,-6.6228,-6.6232,-6.6437,0,-6.549,-6.5668,-6.5655,-6.5824,-6.5905,-6.5855,-6.5946,-6.5989,-6.6,-6.6072,-6.6084,-6.6167,-6.6098,-6.6123,-6.6197,-6.6212,-6.6325,-6.6198,-6.6303,-6.6307,-6.6288,-6.6547,-6.6586,-6.6778,-6.6464,-6.6468,-6.6472,0,-6.5741,-6.5803,-6.598,-6.6023,-6.6056,-6.6138,-6.6208,-6.6278,-6.6328,-6.6331,-6.638,-6.6353,-6.646,-6.6368,-6.6516,-6.643,-6.6473,-6.6488,-6.6495,-6.6501,-6.6397,-6.6559,-6.6839,-6.6867,-6.6513,-6.651,-6.6507,0,-6.5911,-6.6039,-6.6161,-6.619,-6.6244,-6.6302,-6.6328,-6.6372,-6.642,-6.6483,-6.6514,-6.659,-6.663,-6.669,-6.6686,-6.6619,-6.6836,-6.6743,-6.6841,-6.6841,-6.6886,-6.6882,-6.7175,-6.6919,-6.6918,-6.6918,-6.6917,0,-6.6129,-6.6239,-6.6238,-6.6313,-6.6436,-6.6422,-6.6544,-6.6563,-6.6604,-6.6683,-6.6646,-6.6722,-6.6712,-6.6789,-6.6787,-6.691,-6.6929,-6.6935,-6.6932,-6.6937,-6.6936,-6.6962,-6.6948,-6.6925,-6.6924,-6.6922,-6.6921,0,-6.6337,-6.6341,-6.6471,-6.6512,-6.6525,-6.6614,-6.665,-6.6722,-6.6731,-6.6833,-6.6856,-6.687,-6.6959,-6.6962,-6.7064,-6.7063,-6.7213,-6.7196,-6.7195,-6.7191,-6.7288,-6.7278,-6.7605,-6.7647,-6.7366,-6.7369,-6.7371,0,-6.6474,-6.6558,-6.6609,-6.6659,-6.6688,-6.6769,-6.6819,-6.6809,-6.6862,-6.6928,-6.6993,-6.7078,-6.7145,-6.7291,-6.7311,-6.739,-6.7375,-6.7484,-6.7386,-6.7388,-6.7374,-6.7368,-6.7377,-6.7502,-6.7505,-6.7508,-6.751,0,-6.6718,-6.6716,-6.6788,-6.6862,-6.6922,-6.698,-6.7033,-6.7077,-6.7074,-6.7137,-6.7227,-6.728,-6.7385,-6.7471,-6.7548,-6.7576,-6.7543,-6.7541,-6.7568,-6.7571,-6.7566,-6.7569,-6.7245,-6.7533,-6.753,-6.7529,-6.7527,-6.7526,-6.6893,-6.6965,-6.7013,-6.7095,-6.7135,-6.7187,-6.7257,-6.7276,-6.7351,-6.7435,-6.7426,-6.7527,-6.7579,-6.7679,-6.7714,-6.7794,-6.7756,-6.7795,-6.7804,-6.7813,-6.7823,-6.7557,-6.7808,-6.7808,-6.7807,-6.7806,-6.7806,0,-6.7133,-6.7162,-6.7238,-6.7314,-6.738,-6.7345,-6.7403,-6.746,-6.7549,-6.76,-6.7668,-6.7773,-6.7857,-6.7887,-6.7969,-6.8027,-6.8015,-6.8049,-6.8043,-6.805,-6.7853,-6.782,-6.8058,-6.8058,-6.8058,-6.8058,-6.8058,-6.8058,-6.7265,-6.7386,-6.7391,-6.7533,-6.7561,-6.7659,-6.7696,-6.7744,-6.7784,-6.7903,-6.7973,-6.7992,-6.8035,-6.812,-6.8197,-6.8203,-6.8235,-6.8275,-6.8276,-6.809,-6.8064,-6.804,-6.8009,-6.8283,-6.8283,-6.8467,-6.8468,-6.847]},{"header":{"parameterUnit":"m.s-1","parameterCategory":1,"la1":30.2991,"la2":30.254,"lo1":-89.0895,"lo2":-89.0444,"dy":0.0017,"dx":0.0017,"nx":28,"ny":28,"refTime":"2023-10-24T09:00:00:Z","depth":0,"parameterNumber":3,"parameterNumberName":"V-component_of_WINDS"},"data":[0,0,0,0,0,0,0,0,0,0,0,0,0,0,0,0,0,0,0,0,0,0,0,0,0,0,0,0,0,0,0,0,0,0,0,0,0,0,0,0,0,0,0,0,0,0,0,0,0,0,0,0,0,0,0,0,0,0,2.2476,2.2476,0,2.2496,2.2497,2.2497,2.2458,2.2456,2.2455,2.2454,2.2476,2.2478,2.2479,0,0,0,0,0,0,0,0,0,0,0,0,0,2.2405,2.2407,2.2476,2.2476,2.2476,2.2496,2.2497,2.2497,2.2458,2.2456,2.2455,2.2453,2.2475,2.2477,2.2479,0,0,0,0,0,0,0,0,0,0,0,0,0,2.2432,2.2407,2.2476,2.2459,2.2458,2.2496,2.2497,2.2497,2.2458,2.2456,2.2454,2.2453,2.2474,2.2477,2.248,2.2535,0,0,2.2488,2.2489,0,0,0,0,0,0,0,0,2.2431,2.2435,2.2462,2.2461,2.2459,2.2472,2.248,2.251,2.2459,2.2458,2.2454,2.2452,2.2476,2.2479,2.2487,2.2536,2.2537,2.2488,2.249,2.2491,2.2492,0,0,0,0,0,0,0,2.2429,2.2434,2.2484,2.2462,2.2461,2.2452,2.2453,2.2485,2.2478,2.2458,2.2455,2.2458,2.2475,2.2484,2.2487,2.2537,2.2488,2.249,2.2492,2.2493,2.2636,2.2638,0,0,0,0,0,0,2.2429,2.2432,2.2483,2.2485,2.244,2.2455,2.2456,2.247,2.2477,2.2477,2.246,2.2456,2.2481,2.2484,2.2488,2.2554,2.2491,2.2493,2.2495,2.2634,2.2636,2.2639,0,0,0,0,0,0,2.2427,2.2434,2.2482,2.2458,2.2463,2.2458,2.2474,2.2472,2.248,2.2479,2.2477,2.247,2.2479,2.2484,2.2524,2.2555,2.2495,2.2497,2.2631,2.2635,2.2638,2.2688,0,0,0,0,0,0,2.2426,2.2433,2.2454,2.2458,2.2465,2.2518,2.2475,2.2473,2.2485,2.2481,2.2488,2.2488,2.2478,2.252,2.2527,2.2557,2.2499,2.2628,2.2633,2.2637,2.2683,2.2692,2.27,0,0,0,0,0,2.2423,2.2467,2.2455,2.2461,2.249,2.252,2.2523,2.2511,2.2488,2.2509,2.2508,2.2487,2.255,2.2525,2.2532,2.2563,2.2626,2.2632,2.2636,2.268,2.269,2.27,0,0,0,0,0,0,2.2465,2.2467,2.2454,2.25,2.251,2.2513,2.2539,2.2523,2.254,2.2535,2.252,2.2522,2.2566,2.2569,2.254,2.2619,2.2585,2.2591,2.2615,2.2626,2.2634,2.2632,2.2501,0,0,0,0,0,2.248,2.2503,2.2504,2.2544,2.255,2.2544,2.2556,2.2547,2.2556,2.256,2.2562,2.2573,2.2596,2.2611,2.2631,2.2684,2.2686,2.2709,2.2718,2.2724,2.273,2.276,2.2771,2.2655,2.2655,2.2655,0,0,2.251,2.2514,2.253,2.2553,2.256,2.2586,2.2548,2.2576,2.2595,2.2565,2.2603,2.2605,2.2617,2.2664,2.2685,2.2668,2.2763,2.2731,2.2736,2.2738,2.2767,2.2778,2.2787,2.2658,2.2658,2.2657,0,0,2.2578,2.2583,2.2619,2.2627,2.2638,2.2633,2.2642,2.2648,2.2649,2.2687,2.2665,2.2689,2.2727,2.2737,2.2746,2.2822,2.2804,2.2829,2.2872,2.2902,2.2911,2.2919,2.2947,2.2958,2.2835,2.2835,2.2835,0,2.2615,2.2652,2.2639,2.2669,2.2681,2.2656,2.2692,2.2701,2.2718,2.2727,2.2707,2.2757,2.2762,2.2812,2.2831,2.284,2.285,2.2828,2.2911,2.2919,2.2926,2.2953,2.2963,2.2838,2.2838,2.2837,2.2837,0,2.2697,2.2724,2.2751,2.2769,2.2784,2.2817,2.281,2.2827,2.2817,2.2815,2.2856,2.2862,2.2884,2.2895,2.2885,2.2945,2.2934,2.2913,2.2878,2.2941,2.2965,2.2975,2.2842,2.2841,2.284,2.284,0,0,2.2791,2.2803,2.2813,2.2822,2.2833,2.2854,2.2887,2.2909,2.2924,2.2938,2.2966,2.3001,2.2982,2.2993,2.2984,2.301,2.3072,2.2986,2.2986,2.3003,2.314,2.3156,2.3168,2.306,2.3062,2.3063,2.3139,0,2.286,2.2916,2.2907,2.2962,2.2988,2.2965,2.2995,2.3005,2.3006,2.3028,2.3028,2.3053,2.3026,2.3033,2.3058,2.3059,2.3099,2.3053,2.3087,2.3089,2.3085,2.318,2.3197,2.3268,2.3149,2.315,2.3151,0,2.2947,2.2965,2.3023,2.3033,2.3043,2.3069,2.309,2.3111,2.3124,2.3122,2.3136,2.3123,2.3158,2.3123,2.3171,2.3141,2.3154,2.3158,2.316,2.3163,2.3124,2.3187,2.329,2.3301,2.3166,2.3165,2.3164,0,2.3011,2.3049,2.309,2.3098,2.311,2.3129,2.3135,2.3146,2.316,2.3179,2.3188,2.321,2.3223,2.3241,2.3235,2.321,2.3285,2.3249,2.3286,2.3286,2.3302,2.3301,2.341,2.3311,2.331,2.331,2.331,0,2.3089,2.3126,2.3119,2.3144,2.3185,2.3175,2.3216,2.3219,2.323,2.3256,2.3237,2.3262,2.3253,2.3277,2.3273,2.3315,2.332,2.3321,2.3319,2.3323,2.3323,2.3331,2.3327,2.3313,2.3312,2.3312,2.3311,0,2.3167,2.3164,2.3207,2.3215,2.3218,2.3249,2.3256,2.328,2.328,2.3313,2.332,2.332,2.3348,2.3344,2.3375,2.3373,2.3425,2.3417,2.3421,2.3419,2.3456,2.3453,2.3575,2.3591,2.348,2.3481,2.3482,0,2.3217,2.3245,2.3258,2.3274,2.3282,2.3308,2.3323,2.3314,2.3331,2.3349,2.3372,2.3399,2.342,2.3467,2.347,2.3494,2.3487,2.3528,2.3491,2.3494,2.3489,2.3488,2.3491,2.3536,2.3537,2.3538,2.3539,0,2.3307,2.3305,2.3327,2.335,2.3369,2.3387,2.3403,2.3417,2.341,2.343,2.346,2.3476,2.3509,2.3537,2.356,2.3567,2.3553,2.3551,2.3561,2.3565,2.3566,2.3567,2.3442,2.3548,2.3547,2.3546,2.3546,2.3545,2.3374,2.3398,2.3411,2.3438,2.3449,2.3465,2.3489,2.3492,2.3516,2.3542,2.3536,2.3569,2.3584,2.3614,2.3624,2.3651,2.3636,2.365,2.3653,2.3657,2.3662,2.3562,2.3655,2.3655,2.3654,2.3654,2.3654,0,2.3464,2.3471,2.3496,2.3519,2.3541,2.3525,2.3543,2.3562,2.3591,2.3606,2.3628,2.3662,2.369,2.3696,2.3722,2.3743,2.3737,2.375,2.3749,2.3751,2.3673,2.3663,2.3754,2.3754,2.3754,2.3754,2.3754,2.3754,2.3513,2.3555,2.3554,2.3602,2.361,2.3643,2.3654,2.3669,2.3681,2.3721,2.3743,2.3747,2.3759,2.3786,2.3811,2.3813,2.3824,2.384,2.3838,2.3766,2.3756,2.3746,2.3736,2.3842,2.3842,2.3914,2.3914,2.3915]}]]